Location: *
(51.9006°N, 19.5097°E)
Time: 04:32:06
(UTC+00:00)

Daily predictions for brighter satellites

Satellite Brightness Start Highest point End
(mag) Time Altitude Azimuth Time Altitude Azimuth Time Altitude Azimuth
ATLAS 2AS CENTAUR R/B 4.1 00:55:54 36° N 00:55:54 36° N 01:01:33 10° NE
Cosmos 2333 Rocket 4.2 01:25:47 25° NNE 01:25:47 25° NNE 01:28:00 10° NNE
Cosmos 2322 Rocket 4.4 01:45:00 18° N 01:45:00 18° N 01:47:01 10° NNE
Cosmos 2237 Rocket 3.5 01:52:28 35° NE 01:52:28 35° NE 01:55:47 10° NE
USA 215 3.7 01:45:59 10° ENE 01:51:07 57° E 01:51:07 57° E
Cosmos 2219 Rocket 3.7 02:01:01 30° NNE 02:01:01 30° NNE 02:03:56 10° NNE
NOSS 0 Rocket 4.4 02:12:43 55° NNE 02:12:43 55° NNE 02:17:31 10° NNE
ATLAS CENTAUR R/B 3.7 02:13:08 25° ENE 02:13:08 25° ENE 02:15:23 10° NE
Cosmos 2360 Rocket 4.1 02:13:23 20° N 02:13:23 20° N 02:15:57 10° NNE
NOSS 3-1 (A) 4.1 02:14:16 63° SSE 02:14:16 63° SSE 02:21:19 10° SE
Cosmos 1943 Rocket 3.1 02:13:49 42° NE 02:14:19 43° NE 02:19:34 10° ESE
COSMOS 2428 4.0 02:22:37 32° N 02:22:37 32° N 02:26:06 10° NNE
SL-16 R/B 2.7 02:33:07 52° SE 02:33:30 53° ESE 02:39:01 10° NE
Cosmos 1980 4.2 02:41:15 51° N 02:41:15 51° N 02:45:44 10° NNE
Cosmos 2369 Rocket 2.8 02:38:58 24° NNW 02:42:20 54° NE 02:47:56 10° SE
SL-16 R/B 4.4 02:43:30 14° NNW 02:43:39 14° NNW 02:46:27 10° N
ATLAS 2AS CENTAUR R/B 4.1 02:43:18 23° NW 02:47:17 36° N 02:54:07 10° ENE
CZ-4C R/B 2.4 02:49:27 61° NNW 02:49:27 61° NNW 02:55:31 10° NE
ADEOS II 4.0 02:45:50 10° N 02:47:33 18° NNW 02:47:33 18° NNW
Cosmos 1934 Rocket 3.8 02:46:42 10° NNW 02:53:00 75° W 02:53:10 74° WSW
IDEFIX/ARIANE 42P 3.1 02:49:21 10° N 02:53:19 49° NNW 02:53:19 49° NNW
Lacrosse 5 2.4 02:56:47 49° SSE 02:56:47 49° SSE 03:00:34 10° SE
PAYLOAD A 4.1 02:51:03 10° NNE 02:55:54 67° ESE 02:56:33 60° SSE
Cosmos 2251 Rocket 3.7 02:55:35 62° SSE 02:56:12 69° ESE 03:01:30 10° NNE
Meteor 2-3 Rocket 3.9 02:59:46 10° N 03:05:32 73° ENE 03:11:20 10° SSE
BREEZE M DEB (TANK) 3.7 03:06:55 43° ESE 03:06:55 43° ESE 03:10:58 10° E
COSMO-SKYMED 1 3.9 03:02:19 10° SE 03:06:21 39° ENE 03:10:24 10° N
Cosmos 2333 Rocket 3.6 03:07:47 25° NNW 03:07:47 25° NNW 03:12:00 10° NNE
CZ-2C R/B 2.6 03:03:29 10° NNE 03:08:43 74° ESE 03:10:46 37° S
Cosmos 2221 4.0 03:06:42 10° SSE 03:10:36 36° E 03:14:35 10° NNE
Cosmos-2242 4.5 03:17:32 26° NNW 03:17:32 26° NNW 03:19:37 10° N
Cosmos 1605 Rocket 3.8 03:10:48 10° NNW 03:17:03 74° W 03:23:11 10° S
ALOS 4.2 03:13:08 10° NNE 03:17:13 29° E 03:21:17 10° SSE
SJ-6F 4.4 03:14:32 10° NNE 03:18:41 79° ESE 03:18:52 76° SE
Cosmos 1484 Rocket 4.2 03:16:52 10° NNE 03:20:35 38° E 03:24:20 10° SSE
BREEZE-M DEB (TANK) 3.1 03:21:49 56° SW 03:22:28 62° S 03:33:28 10° ESE
ADEOS 3.5 03:21:19 10° N 03:26:31 65° WNW 03:27:38 51° WSW
Cosmos 2322 Rocket 4.5 03:26:53 10° NNW 03:28:48 12° N 03:30:45 10° N
GEOS 3 Rocket 4.5 03:24:03 10° NE 03:29:11 48° SE 03:33:19 16° SSW
ARIANE 5 R/B 4.5 03:26:34 10° NNW 03:27:54 14° NNW 03:27:54 14° NNW
Cosmos 1153 Rocket 4.3 03:25:39 10° N 03:31:51 85° W 03:37:58 10° S
Cosmos 1455 4.3 03:34:32 16° NNW 03:34:32 16° NNW 03:35:31 10° N
NOSS 2-1 (E) 3.0 03:32:56 78° N 03:32:56 78° N 03:36:48 10° NE
STARLINK-1129 3.6 03:33:21 56° NE 03:33:21 56° NE 03:36:05 10° E
STARLINK-1176 4.4 03:34:24 30° ENE 03:34:24 30° ENE 03:35:58 10° E
Cosmos 2237 Rocket 3.0 03:34:18 32° NW 03:34:40 33° NW 03:39:45 10° NNE
STARLINK-1134 3.4 03:35:16 59° NE 03:35:16 59° NE 03:38:06 10° E
USA 215 3.4 03:29:05 10° ENE 03:35:32 63° NNW 03:38:28 34° W
STARLINK-1135 3.3 03:37:34 63° NE 03:37:34 63° NE 03:40:30 10° E
Spot 2 3.8 03:33:57 10° N 03:38:01 68° WNW 03:38:30 60° WSW
Meteor 1-27 4.4 03:32:35 10° S 03:38:06 72° E 03:43:40 10° NNE
STARLINK-1141 3.2 03:39:46 66° NE 03:39:46 66° NE 03:42:47 10° E
Meteor 2-10 Rocket 3.7 03:40:28 43° WSW 03:41:32 50° WNW 03:46:34 10° N
STARLINK-1140 3.1 03:41:52 68° NNE 03:41:52 68° NNE 03:44:59 10° E
Cosmos 2219 Rocket 3.8 03:42:44 18° NW 03:43:34 18° NNW 03:47:27 10° NNE
STARLINK-1156 3.0 03:44:03 70° N 03:44:03 70° N 03:47:16 10° E
CZ-4B R/B 2.7 03:40:15 10° NNE 03:43:59 79° ESE 03:46:10 23° S
STARLINK-1148 3.0 03:46:10 70° N 03:46:12 70° N 03:49:29 10° E
Aureole 2 Rocket 2.9 03:47:43 41° S 03:47:43 41° S 03:49:55 10° SSE
Cosmos 1727 Rocket 3.9 03:42:00 10° S 03:48:13 87° W 03:54:26 10° N
STARLINK-1158 3.0 03:48:21 69° NNW 03:48:27 70° N 03:51:44 10° E
Meteor 1-31 Rocket 2.6 03:45:04 10° N 03:48:52 74° WNW 03:50:22 35° SSW
Cosmos 1805 Rocket 4.0 03:44:58 10° N 03:49:16 62° ENE 03:53:34 10° SSE
ATLAS CENTAUR R/B 1.9 03:49:21 42° WNW 03:50:11 48° NW 03:54:26 10° NE
Sich 1 4.0 03:47:31 10° N 03:51:42 48° ENE 03:55:52 10° SSE
Cosmos 2173 Rocket 4.0 03:45:47 10° N 03:52:09 83° E 03:58:23 10° S
SKYMED 2 3.4 03:50:01 10° S 03:54:21 78° WSW 03:58:44 10° NNW
Cosmos 1339 Rocket 4.5 03:49:40 13° SSW 03:55:01 55° WNW 04:01:03 10° N
MSX 4.4 03:50:25 10° N 03:55:37 37° WNW 03:57:22 30° W
Cosmos 1500 Rocket 3.6 03:52:21 10° NNW 03:56:44 57° W 04:01:03 10° S
Cosmos 2360 Rocket 4.4 03:55:36 10° NNW 03:57:32 12° NNW 03:59:30 10° N
Cosmos 1943 Rocket 2.5 03:55:25 25° WNW 03:58:04 41° WSW 04:03:10 10° S
H-2A R/B 2.5 03:57:26 10° N 04:01:46 64° WNW 04:06:11 10° SSW
Cosmos 614 Rocket 4.1 03:58:26 10° SSW 04:03:35 79° ESE 04:08:49 10° NNE
Cosmos 1356 Rocket 3.9 04:03:55 35° WNW 04:04:07 35° WNW 04:07:56 10° N
COSMOS 2428 4.5 04:04:38 14° NW 04:06:26 16° NNW 04:09:56 10° NNE
Okean O Rocket 3.2 04:03:10 10° NNE 04:07:16 37° E 04:11:18 10° SSE
Cosmos 2100 Rocket 3.9 04:01:22 10° NNW 04:07:36 74° W 04:13:44 10° S
STARLINK-1153 2.7 04:07:20 53° WNW 04:07:52 71° N 04:10:48 10° E
STARLINK-1180 2.7 04:07:31 52° WNW 04:08:04 71° N 04:11:00 10° E
STARLINK-1174 2.7 04:07:58 52° WNW 04:08:32 71° N 04:11:28 10° E
STARLINK-1139 2.7 04:08:11 51° WNW 04:08:45 71° N 04:11:42 10° E
Cosmos 1743 Rocket 3.9 04:04:48 10° NNW 04:08:52 40° W 04:12:55 10° SSW
STARLINK-1133 2.7 04:08:24 51° WNW 04:08:59 71° N 04:11:55 10° E
STARLINK-1151 2.7 04:08:38 50° WNW 04:09:14 71° N 04:12:10 10° E
STARLINK-1160 2.7 04:09:16 49° WNW 04:09:53 71° N 04:12:49 10° E
STARLINK-1161 2.7 04:09:29 49° WNW 04:10:06 72° N 04:13:01 10° E
STARLINK-1145 2.7 04:09:42 49° WNW 04:10:20 72° N 04:13:16 10° E
STARLINK-1172 2.7 04:09:55 48° WNW 04:10:33 72° N 04:13:29 10° E
STARLINK-1182 2.7 04:10:21 48° WNW 04:11:01 72° N 04:13:57 10° E
STARLINK-1164 2.7 04:10:33 48° WNW 04:11:13 72° N 04:14:08 10° E
STARLINK-1168 2.7 04:10:47 47° WNW 04:11:27 72° N 04:14:23 10° E
STARLINK-1183 2.7 04:11:25 46° WNW 04:12:08 72° N 04:15:03 10° E
STARLINK-1181 2.7 04:11:38 46° WNW 04:12:21 72° N 04:15:16 10° E
STARLINK-1196 2.7 04:12:17 45° WNW 04:13:02 72° N 04:15:59 10° E
STARLINK-1149 2.5 04:12:46 51° WNW 04:13:19 73° N 04:16:03 10° E
STARLINK-1186 2.7 04:12:44 44° WNW 04:13:29 72° N 04:16:25 10° E
Cosmos 1869 3.2 04:09:41 10° SSW 04:13:41 81° WNW 04:17:40 10° N
STARLINK-1185 2.7 04:12:57 44° WNW 04:13:43 73° N 04:16:38 10° E
STARLINK-1175 2.7 04:13:09 44° WNW 04:13:55 73° N 04:16:51 10° E
STARLINK-1147 2.7 04:13:22 43° WNW 04:14:10 73° N 04:17:05 10° E
STARLINK-1146 2.7 04:13:35 43° WNW 04:14:23 73° N 04:17:20 10° E
STARLINK-1152 2.7 04:13:48 43° WNW 04:14:36 73° N 04:17:33 10° E
STARLINK-1195 2.7 04:14:01 43° WNW 04:14:50 73° N 04:17:46 10° E
STARLINK-1137 2.7 04:14:14 42° WNW 04:15:04 73° N 04:17:59 10° E
STARLINK-1142 2.7 04:14:28 42° WNW 04:15:18 73° N 04:18:14 10° E
STARLINK-1127 2.7 04:14:40 42° WNW 04:15:31 73° N 04:18:27 10° E
STARLINK-1184 2.7 04:14:53 41° WNW 04:15:44 73° N 04:18:40 10° E
STARLINK-1193 2.7 04:15:07 41° WNW 04:15:58 73° N 04:18:54 10° E
STARLINK-1194 2.7 04:15:18 41° WNW 04:16:10 73° N 04:19:05 10° E
SL-16 R/B 2.8 04:15:01 23° W 04:17:51 37° NW 04:23:07 10° NNE
FENGYUN 3A 3.7 04:13:56 10° NNE 04:19:25 90° WNW 04:24:52 10° SSW
Cosmos 1000 Rocket 4.5 04:13:28 10° S 04:19:39 90° W 04:25:57 10° N
STARLINK-1132 2.5 04:20:14 38° WNW 04:21:07 77° N 04:23:54 10° E
Cosmos 1459 Rocket 3.9 04:15:06 10° NNW 04:21:11 65° W 04:27:21 10° S
Cosmos 2061 Rocket 4.0 04:15:23 10° N 04:21:43 85° W 04:27:57 10° S
STARLINK-1150 2.5 04:22:37 35° WNW 04:23:36 78° N 04:26:24 10° E
STARLINK-1162 2.9 04:22:57 29° WNW 04:24:26 77° N 04:27:38 10° E
STARLINK-1163 2.5 04:23:49 34° WNW 04:24:51 79° NNE 04:27:37 10° E
Cosmos 1842 Rocket 4.2 04:21:59 11° SW 04:25:54 36° WNW 04:30:05 10° N
Cosmos 2369 Rocket 2.8 04:21:06 10° NW 04:26:10 33° WSW 04:31:11 10° SSW
STARLINK-1157 2.9 04:24:51 28° WNW 04:26:24 77° N 04:29:36 10° E
Cosmos 1238 Rocket 3.7 04:20:14 10° NNW 04:26:33 77° W 04:31:56 10° S
STARLINK-1173 2.5 04:25:37 32° WNW 04:26:43 80° NNE 04:29:30 10° E
STARLINK-1177 2.5 04:25:47 32° WNW 04:26:54 80° NNE 04:29:40 10° E
STARLINK-1167 2.5 04:26:35 31° WNW 04:27:43 80° N 04:30:30 10° E
STARLINK-1159 2.9 04:26:50 26° WNW 04:28:29 78° N 04:31:42 10° E
SJ-12 3.9 04:25:51 10° N 04:29:57 63° WNW 04:34:03 10° SSW
Meteor PRIRODA 4.0 04:26:39 10° N 04:30:11 42° WNW 04:33:40 10° SW
STARLINK-1171 2.9 04:28:59 25° WNW 04:30:42 79° N 04:33:56 10° E
STARLINK-1070 4.1 04:29:12 12° SW 04:31:36 34° SSE 04:34:18 10° E
Cosmos 1725 Rocket 4.0 04:25:28 10° N 04:31:45 90° NW 04:38:04 10° S
STARLINK-1124 3.9 04:29:56 14° SW 04:32:10 39° SSE 04:34:56 10° E
NOSS 2-1 (C) 4.2 04:30:40 21° WNW 04:32:23 31° NNW 04:36:08 10° NE
STARLINK-1066 4.1 04:30:06 12° SW 04:32:31 34° SSE 04:35:14 10° E
STARLINK-1136 2.5 04:31:18 27° WNW 04:32:38 83° N 04:35:25 10° E
STARLINK-1081 4.1 04:30:19 12° SW 04:32:44 34° SSE 04:35:27 10° E
STARLINK-1155 2.9 04:30:56 24° WNW 04:32:45 80° N 04:35:58 10° E
STARLINK-1069 4.1 04:30:45 12° SW 04:33:12 35° SSE 04:35:55 10° E
IDEFIX/ARIANE 42P 4.2 04:30:30 10° NNW 04:33:14 14° NW 04:34:08 14° WNW
H-2A R/B 4.5 04:29:45 10° NNE 04:33:16 36° E 04:36:44 10° SSE
STARLINK-1085 4.1 04:30:58 12° SW 04:33:25 35° SSE 04:36:09 10° E
STARLINK-1086 4.1 04:31:11 12° SW 04:33:39 35° SSE 04:36:22 10° E
Cosmos 921 Rocket 3.6 04:29:43 10° NW 04:33:48 36° WSW 04:37:48 10° SSW
STARLINK-1095 4.1 04:31:24 12° SW 04:33:52 35° SSE 04:36:35 10° E
Cosmos 1603 3.7 04:28:13 10° SW 04:33:55 72° WNW 04:39:38 10° NNE
STARLINK-1077 4.1 04:31:37 12° SW 04:34:06 35° SSE 04:36:49 10° E
STARLINK-1075 4.1 04:31:50 12° SW 04:34:19 35° SSE 04:37:03 10° E
STARLINK-1093 4.1 04:32:03 12° SW 04:34:32 35° SSE 04:37:16 10° E
MOS 1-B 4.3 04:28:52 10° NNE 04:34:43 85° WNW 04:40:32 10° SSW
STARLINK-1074 4.1 04:32:15 12° SW 04:34:45 35° SSE 04:37:29 10° E
STARLINK-1087 4.1 04:32:29 11° SW 04:34:59 36° SSE 04:37:43 10° E
STARLINK-1166 2.9 04:33:09 23° WNW 04:35:02 81° N 04:38:16 10° E
STARLINK-1088 4.0 04:32:41 11° SW 04:35:11 36° SSE 04:37:54 10° E
STARLINK-1115 4.0 04:32:55 11° SW 04:35:26 36° SSE 04:38:10 10° E
NOAA 6 4.3 04:30:14 10° NNE 04:35:27 73° ESE 04:40:36 10° S
STARLINK-1076 4.0 04:33:08 11° SW 04:35:39 36° SSE 04:38:23 10° E
STARLINK-1092 4.0 04:33:21 11° SW 04:35:53 36° SSE 04:38:37 10° E
STARLINK-1080 4.0 04:33:33 11° SW 04:36:05 36° SSE 04:38:49 10° E
STARLINK-1090 4.0 04:33:46 11° SW 04:36:19 36° SSE 04:39:04 10° E
NOSS 2-1 (D) 4.3 04:34:39 19° WNW 04:36:29 30° NNW 04:40:13 10° NE
STARLINK-1089 4.0 04:34:00 11° SW 04:36:33 36° SSE 04:39:18 10° E
STARLINK-1107 4.0 04:34:12 11° SW 04:36:46 36° SSE 04:39:30 10° E
STARLINK-1109 4.0 04:34:25 11° SW 04:36:59 37° SSE 04:39:44 10° E
Cosmos 1633 3.1 04:33:46 10° NNW 04:37:09 37° W 04:40:32 10° SSW
STARLINK-1165 2.9 04:35:12 21° WNW 04:37:11 82° NNE 04:40:25 10° E
STARLINK-1091 4.0 04:34:39 11° SW 04:37:14 37° SSE 04:39:59 10° E
CZ-4B DEB 4.2 04:31:46 10° NNE 04:37:18 85° WNW 04:42:46 10° SSW
STARLINK-1072 4.0 04:34:51 11° SW 04:37:27 37° SSE 04:40:11 10° E
USA 116 3.5 04:34:29 10° S 04:37:29 41° W 04:40:28 10° NNW
STARLINK-1096 4.0 04:35:04 11° SW 04:37:39 37° SSE 04:40:24 10° E
Lacrosse 5 3.3 04:36:01 16° W 04:37:47 19° SW 04:41:18 10° S
STARLINK-1079 4.0 04:35:17 11° SW 04:37:54 37° SSE 04:40:39 10° E
STARLINK-1116 4.0 04:35:31 11° SW 04:38:07 37° SSE 04:40:53 10° E
Cosmos 2123 Rocket 4.2 04:32:05 10° S 04:38:24 79° E 04:44:43 10° NNE
STARLINK-1094 4.0 04:35:57 11° SW 04:38:34 37° SSE 04:41:20 10° E
STARLINK-1117 4.0 04:36:09 11° SW 04:38:48 38° SSE 04:41:33 10° E
CZ-4C R/B 3.5 04:34:38 14° WNW 04:38:53 32° N 04:44:58 10° NE
Cosmos 1943 3.1 04:33:17 10° SSW 04:38:54 81° WNW 04:44:35 10° NNE
STARLINK-1078 4.0 04:36:22 11° SW 04:39:01 38° SSE 04:41:46 10° E
STARLINK-1108 3.9 04:36:36 11° SW 04:39:15 38° SSE 04:42:00 10° E
STARLINK-1169 2.9 04:37:15 20° WNW 04:39:19 83° N 04:42:33 10° E
STARLINK-1071 3.9 04:36:48 11° SW 04:39:27 38° SSE 04:42:12 10° E
STARLINK-1110 3.9 04:37:02 11° SW 04:39:41 38° SSE 04:42:27 10° E
Helios 1A Rocket 4.0 04:35:37 10° NNE 04:39:41 50° E 04:43:43 10° S
ATLAS 2AS CENTAUR R/B 3.3 04:31:57 10° NW 04:39:43 63° NE 04:46:52 10° ESE
STARLINK-1122 3.9 04:37:28 10° SW 04:40:09 38° SSE 04:42:54 10° E
STARLINK-1126 3.9 04:37:40 10° SW 04:40:21 38° SSE 04:43:07 10° E
STARLINK-1082 3.9 04:37:54 10° SW 04:40:35 39° SSE 04:43:22 10° E
STARLINK-1100 3.9 04:38:06 10° SW 04:40:49 39° SSE 04:43:34 10° E
Cosmos 1656 Rocket 3.9 04:35:30 10° NW 04:40:59 50° WSW 04:46:27 10° S
STARLINK-1083 3.9 04:38:20 10° SW 04:41:02 39° SSE 04:43:48 10° E
STARLINK-1125 3.9 04:38:32 10° SW 04:41:16 39° SSE 04:44:02 10° E
STARLINK-1178 2.9 04:39:15 19° WNW 04:41:25 84° NNE 04:44:38 10° E
COSMO-SKYMED 1 3.4 04:38:51 10° SSW 04:42:37 28° W 04:46:24 10° NW
Cosmos 1802 Rocket 4.1 04:36:32 10° NNW 04:42:48 56° W 04:49:02 10° SSW
STARLINK-1120 2.9 04:41:13 18° WNW 04:43:27 85° NNE 04:46:41 10° ESE
Cosmos 1633 Rocket 3.0 04:39:26 10° N 04:43:50 88° WSW 04:48:13 10° S
CZ-4B R/B 3.4 04:40:15 10° NNE 04:45:38 77° ESE 04:50:55 10° SSW
STARLINK-1131 2.9 04:43:22 18° WNW 04:45:41 86° NNE 04:48:56 10° ESE
Cosmos 1666 Rocket 3.5 04:41:56 10° NNW 04:46:23 71° W 04:50:46 10° S
STARLINK-1170 2.3 04:44:42 19° WNW 04:46:25 87° SSW 04:49:05 10° ESE
CZ-2C R/B 3.7 04:42:29 10° N 04:46:26 22° WNW 04:50:10 11° WSW
Cosmos 1862 3.4 04:43:02 10° NNW 04:46:55 52° W 04:50:46 10° S
STARLINK-1190 2.9 04:45:30 17° WNW 04:47:55 88° NNE 04:51:09 10° ESE
Cosmos 1763 Rocket 3.9 04:42:48 10° NNW 04:48:09 67° ENE 04:53:26 10° SE
Cosmos 2221 3.4 04:44:34 10° SW 04:48:16 28° WNW 04:52:00 10° N
SL-08 R/B 4.4 04:44:48 10° NNW 04:50:55 65° W 04:56:55 10° S
Cosmos 1864 Rocket 4.4 04:45:10 10° NNW 04:51:16 67° W 04:57:21 10° S
ADEOS Rocket 3.2 04:45:04 10° S 04:51:23 71° WSW 04:58:29 10° NNW
Cosmos 2333 Rocket 4.3 04:51:34 10° NW 04:53:46 12° N 04:55:58 10° NNE
ALOS 2.6 04:50:23 10° N 04:54:47 42° WNW 04:59:10 10° SW
Cosmos 1484 Rocket 3.9 04:51:37 10° N 04:54:51 25° WNW 04:58:07 10° WSW
Iridium 51 4.2 04:56:27 10° S 05:00:20 83° E 05:03:59 10° N
TELKOM 3 3.6 04:58:59 13° W 05:00:40 37° SSW 05:02:40 10° ESE
Cosmos 192 4.3 04:56:44 10° NNW 05:01:41 83° WSW 05:06:35 10° SSE
CZ-2C R/B 4.3 05:01:34 10° SSE 05:05:54 58° ENE 05:10:17 10° N
COSMOS 2455 3.6 05:00:17 10° NNW 05:06:12 52° NE 05:12:05 10° ESE
STARLINK-1179 2.5 05:04:27 11° WNW 05:06:56 67° SSW 05:09:33 10° ESE
GEOS 3 Rocket 3.9 05:02:09 10° NE 05:07:15 51° NW 05:12:24 10° WSW
STARLINK-1176 2.6 05:05:01 11° WNW 05:07:33 67° SSW 05:10:13 10° ESE
Cosmos 2016 Rocket 4.3 05:02:44 10° NNW 05:08:34 44° W 05:14:26 10° SSW
STARLINK-1104 4.4 05:05:03 10° SW 05:08:59 49° SSE 05:12:55 10° ENE
STARLINK-1129 3.0 05:05:59 10° WNW 05:09:15 79° SSW 05:12:31 10° ESE
Cosmos 1340 2.6 05:07:17 10° NNW 05:11:01 65° W 05:14:45 10° S
Cosmos 1346 Rocket 2.7 05:07:15 10° NNW 05:11:11 82° W 05:15:04 10° S
STARLINK-1134 3.0 05:07:58 10° WNW 05:11:14 77° SSW 05:14:30 10° ESE
STARLINK-1135 3.0 05:10:20 10° WNW 05:13:36 75° SSW 05:16:52 10° ESE
STARLINK-1144 4.3 05:09:46 10° SW 05:13:43 52° SSE 05:17:41 10° ENE
PAYLOAD B 4.4 05:09:35 10° N 05:15:01 53° WNW 05:20:24 10° SW
Cosmos 2322 Rocket 4.4 05:12:50 10° N 05:15:38 14° NNE 05:18:26 10° NE
STARLINK-1141 3.0 05:12:40 10° WNW 05:15:57 74° SSW 05:19:12 10° ESE
CZ-4 R/B 4.3 05:13:08 10° NE 05:16:23 23° E 05:19:35 10° SSE
STARLINK-1140 3.1 05:14:51 10° WNW 05:18:07 72° SSW 05:21:22 10° ESE
Meteor 1-25 Rocket 4.4 05:12:30 10° N 05:18:07 79° ENE 05:23:41 10° SSE
USA 215 3.6 05:11:47 10° E 05:18:12 60° N 05:24:37 10° WNW
STARLINK-1103 4.3 05:14:31 10° SW 05:18:29 55° SSE 05:22:28 10° ENE
Cosmos 1954 Rocket 4.1 05:14:25 10° SW 05:19:41 60° WNW 05:24:59 10° NNE
Cosmos 2237 Rocket 4.1 05:17:58 10° NW 05:20:37 13° NNW 05:23:15 10° N
STARLINK-1128 4.2 05:16:45 10° SW 05:20:42 57° SSE 05:24:39 10° ENE
Cosmos 407 Rocket 4.2 05:16:25 10° WSW 05:21:16 35° NW 05:26:06 10° NNE
Cosmos 1140 Rocket 3.9 05:17:23 10° SW 05:22:22 43° NW 05:27:24 10° NNE
